(198) Ampella
ephemeris date magn radius delta ra dec elong phase
Today16 Jun 202612.32.000 AU1.551 AU22h48m+01°44'100.3°30.0°
Opposition12 Sep 202610.41.904 AU0.924 AU22h51m+13°38'160.7°10.0°
(198) Ampella - 2026-06-16
astro.vanbuitenen.nl


 
-1 year
-1 month
-1 day
Now
+1 day
+1 month
+1 year

The interactive orbit chart above shows the body's path through the solar system and its position at the given date. Green and blue lines are shown perpendicular to the ecliptic plane: Green if the path is above the ecliptic plane, blue if it is below. (Left-click and drag to rotate the view; Right-click and drag to move the view; Use scroll wheel to zoom in our out.)

The orbital elements of Ampella are:

            e (Eccentricity)                : 0.2271493
            a (Semimajor axis)              : 2.4591408
            i (Inclination)                 : 9.32274
            Ω (Longitude of ascending node) : 268.20101
            ω (Argument of perihelion)      : 89.01909
            M (Mean anomaly)                : 330.95536
            Epoch                           : 2026 Jun 09

            L (Longitude of perihelion)     : 357.20697
            B (Latitude of perihelion)      : 9.32136
            P (Orbital period in years)     : 3.86            
        

The light curve chart below shows the estimated development of the minor planet's magnitude.


The all-sky chart below shows the path of the minor planet over the same period as the light curve. The current position is marked yellow.





The following chart shows the path of the minor planet in the next few days. The field of view is optimized for (~10x50) binoculars and finderscopes.




Ephemerides:
Date       Time       RA (2000)    DEC (2000)    delta   radius  elong  phase   PA    magn
2026-06-16 00:00 UT   22 48 10.6   +01 44 35     1.551    2.000  100.3   30.0   246   12.3 
2026-06-16 11:28 UT   22 48 41.9   +01 51 18     1.545    1.999  100.6   30.0   246   12.3 
2026-06-17 00:00 UT   22 49 15.8   +01 58 38     1.539    1.998  100.9   30.0   246   12.3 
2026-06-18 00:00 UT   22 50 19.9   +02 12 40     1.528    1.996  101.5   29.9   246   12.2 
2026-06-19 00:00 UT   22 51 23.0   +02 26 41     1.516    1.994  102.1   29.9   245   12.2 
2026-06-20 00:00 UT   22 52 25.1   +02 40 40     1.505    1.993  102.7   29.8   245   12.2 
2026-06-21 00:00 UT   22 53 26.0   +02 54 37     1.494    1.991  103.3   29.8   245   12.2 
2026-06-22 00:00 UT   22 54 25.9   +03 08 33     1.483    1.989  103.9   29.7   245   12.2 
2026-06-23 00:00 UT   22 55 24.7   +03 22 27     1.472    1.988  104.6   29.7   245   12.2 
2026-06-24 00:00 UT   22 56 22.3   +03 36 18     1.461    1.986  105.2   29.6   245   12.1 
2026-06-25 00:00 UT   22 57 18.8   +03 50 08     1.450    1.984  105.8   29.5   244   12.1 
2026-06-26 00:00 UT   22 58 14.1   +04 03 55     1.439    1.983  106.4   29.4   244   12.1 
2026-06-27 00:00 UT   22 59 08.3   +04 17 39     1.428    1.981  107.1   29.4   244   12.1 
2026-06-28 00:00 UT   23 00 01.2   +04 31 21     1.417    1.980  107.7   29.3   244   12.0 
2026-06-29 00:00 UT   23 00 52.9   +04 45 00     1.407    1.978  108.4   29.2   244   12.0 
2026-06-30 00:00 UT   23 01 43.4   +04 58 36     1.396    1.977  109.0   29.1   243   12.0 
2026-07-01 00:00 UT   23 02 32.7   +05 12 09     1.385    1.975  109.7   29.0   243   12.0 
2026-07-02 00:00 UT   23 03 20.6   +05 25 38     1.375    1.973  110.3   28.9   243   12.0 
2026-07-03 00:00 UT   23 04 07.2   +05 39 04     1.364    1.972  111.0   28.8   243   11.9 
2026-07-04 00:00 UT   23 04 52.5   +05 52 26     1.354    1.970  111.6   28.7   242   11.9 
2026-07-05 00:00 UT   23 05 36.5   +06 05 43     1.344    1.969  112.3   28.5   242   11.9 
2026-07-06 00:00 UT   23 06 19.1   +06 18 57     1.333    1.967  113.0   28.4   242   11.9 
2026-07-07 00:00 UT   23 07 00.2   +06 32 06     1.323    1.966  113.7   28.3   242   11.9 
2026-07-08 00:00 UT   23 07 39.9   +06 45 10     1.313    1.964  114.4   28.1   242   11.8 
2026-07-09 00:00 UT   23 08 18.2   +06 58 08     1.303    1.963  115.0   28.0   241   11.8 
2026-07-10 00:00 UT   23 08 55.0   +07 11 02     1.293    1.962  115.7   27.8   241   11.8 
2026-07-11 00:00 UT   23 09 30.2   +07 23 50     1.284    1.960  116.4   27.7   241   11.8 
2026-07-12 00:00 UT   23 10 04.0   +07 36 31     1.274    1.959  117.1   27.5   240   11.7 
2026-07-13 00:00 UT   23 10 36.2   +07 49 07     1.264    1.957  117.8   27.3   240   11.7 
2026-07-14 00:00 UT   23 11 06.7   +08 01 36     1.255    1.956  118.6   27.2   240   11.7 


    Terminology:
            
    delta:  distance between minor planet and earth in AU
    radius: distance between minor planet and sun in AU
    magn:   magnitude (brightness) estimate    
    ra:     right ascension in hours (24h = 360deg)
    dec:    declination in degrees
    elong:  elongation in degrees (angle sun-earth-minor planet)    
    phase:  phase angle in degrees (angle sun-minor planet-earth)        
    AU:     Astronomical Unit (mean distance between earth and sun: 149597870.7 km
    

Orbital elements provided by the MPC (Minor Planet Center).
Calculations by a modified version of AAPlus, a C# implementation of the AA+ project by PJ Naughter from the algorithms presented in the book "Astronomical Algorithms" by Jean Meeus.
NGC2000 dso catalog and star labels from VizieR as provided by the Strasbourg astronomical Data Center.
Tycho2 catalog from the ESO archive.